| time (UTC) | temp F | wind direction | speed MPH | gust MPH | rain 1hr in | rain 24hr in | rain mn in | humidity % | barometer mb |
| 20260507201559 | 65 | 276 | 9.0 | 17.0 | 0.00 | 0.00 | 0.00 | 81 | 1015.7 |
| 20260507200055 | 65 | 299 | 11.0 | 16.0 | 0.00 | 0.00 | 0.00 | 82 | 1015.7 |
| 20260507194545 | 64 | 293 | 10.0 | 15.0 | 0.00 | 0.00 | 0.00 | 83 | 1015.8 |
| 20260507193048 | 65 | 278 | 11.0 | 14.0 | 0.00 | 0.00 | 0.00 | 82 | 1015.7 |
| 20260507191544 | 65 | 282 | 8.0 | 14.0 | 0.00 | 0.00 | 0.00 | 81 | 1015.9 |
| 20260507190047 | 65 | 276 | 8.0 | 13.0 | 0.00 | 0.00 | 0.00 | 81 | 1016.0 |
| 20260507184540 | 65 | 146 | 9.0 | 14.0 | 0.00 | 0.00 | 0.00 | 82 | 1016.1 |
| 20260507183042 | 65 | 290 | 6.0 | 15.0 | 0.00 | 0.00 | 0.00 | 83 | 1016.3 |
| 20260507181539 | 64 | 302 | 7.0 | 13.0 | 0.00 | 0.00 | 0.00 | 83 | 1016.4 |
| 20260507180035 | 64 | 270 | 4.0 | 9.0 | 0.00 | 0.00 | 0.00 | 84 | 1016.4 |
| 20260507174547 | 64 | 262 | 7.0 | 10.0 | 0.00 | 0.00 | 0.00 | 84 | 1016.5 |
| 20260507173036 | 63 | 295 | 6.0 | 9.0 | 0.00 | 0.00 | 0.00 | 84 | 1016.5 |
| 20260507171529 | 63 | 303 | 7.0 | 11.0 | 0.00 | 0.00 | 0.00 | 85 | 1016.6 |
| 20260507170027 | 63 | 326 | 4.0 | 8.0 | 0.00 | 0.00 | 0.00 | 85 | 1016.6 |
| 20260507164524 | 63 | 292 | 4.0 | 9.0 | 0.00 | 0.00 | 0.00 | 86 | 1016.7 |
| 20260507163021 | 63 | 328 | 3.0 | 8.0 | 0.00 | 0.00 | 0.00 | 86 | 1016.7 |
| 20260507161518 | 62 | 299 | 1.0 | 10.0 | 0.00 | 0.00 | 0.00 | 86 | 1016.8 |
| 20260507160016 | 62 | 17 | 5.0 | 8.0 | 0.00 | 0.00 | 0.00 | 86 | 1016.9 |
| 20260507154513 | 62 | 305 | 5.0 | 8.0 | 0.00 | 0.00 | 0.00 | 87 | 1016.8 |
| 20260507153009 | 62 | 278 | 4.0 | 7.0 | 0.00 | 0.00 | 0.00 | 87 | 1016.8 |
| 20260507151508 | 62 | 311 | 0.0 | 6.0 | 0.00 | 0.00 | 0.00 | 87 | 1016.8 |
| 20260507150005 | 62 | 317 | 4.0 | 8.0 | 0.00 | 0.00 | 0.00 | 87 | 1016.6 |
| 20260507144503 | 62 | 301 | 2.0 | 5.0 | 0.00 | 0.00 | 0.00 | 87 | 1016.5 |
| 20260507143103 | 62 | 14 | 0.0 | 1.0 | 0.00 | 0.00 | 0.00 | 88 | 1016.5 |
| 20260507141605 | 62 | 29 | 0.0 | 2.0 | 0.00 | 0.00 | 0.00 | 88 | 1016.4 |
| 20260507140059 | 61 | 31 | 0.0 | 2.0 | 0.00 | 0.00 | 0.00 | 89 | 1016.3 |
| 20260507134600 | 61 | 23 | 1.0 | 3.0 | 0.00 | 0.00 | 0.00 | 89 | 1016.2 |
| 20260507133054 | 61 | 33 | 0.0 | 5.0 | 0.00 | 0.00 | 0.00 | 89 | 1016.1 |
| 20260507131552 | 60 | 22 | 2.0 | 3.0 | 0.00 | 0.00 | 0.00 | 90 | 1016.1 |
| 20260507130100 | 60 | 15 | 1.0 | 3.0 | 0.00 | 0.00 | 0.00 | 90 | 1016.1 |
| 20260507124607 | 60 | 12 | 1.0 | 2.0 | 0.00 | 0.00 | 0.00 | 90 | 1015.8 |
| 20260507123104 | 60 | 10 | 1.0 | 3.0 | 0.00 | 0.00 | 0.00 | 90 | 1015.8 |
| 20260507121558 | 60 | 347 | 0.0 | 2.0 | 0.00 | 0.00 | 0.00 | 89 | 1015.8 |
| 20260507120048 | 60 | 294 | 0.0 | 2.0 | 0.00 | 0.00 | 0.00 | 89 | 1015.8 |
| 20260507114552 | 61 | 347 | 2.0 | 5.0 | 0.00 | 0.00 | 0.00 | 89 | 1015.7 |
| 20260507113047 | 60 | 335 | 2.0 | 5.0 | 0.00 | 0.00 | 0.00 | 89 | 1015.6 |
| 20260507111545 | 60 | 303 | 2.0 | 6.0 | 0.00 | 0.00 | 0.00 | 90 | 1015.8 |
| 20260507110045 | 60 | 354 | 3.0 | 4.0 | 0.00 | 0.00 | 0.00 | 90 | 1015.8 |
| 20260507104544 | 60 | 345 | 2.0 | 5.0 | 0.00 | 0.00 | 0.00 | 90 | 1015.9 |
| 20260507103042 | 60 | 350 | 2.0 | 4.0 | 0.00 | 0.00 | 0.00 | 91 | 1016.1 |
| 20260507101550 | 60 | 348 | 2.0 | 3.0 | 0.00 | 0.00 | 0.00 | 91 | 1016.2 |
| 20260507100050 | 60 | 310 | 1.0 | 3.0 | 0.00 | 0.00 | 0.00 | 91 | 1016.2 |
| 20260507094539 | 60 | 310 | 0.0 | 1.0 | 0.00 | 0.00 | 0.00 | 91 | 1016.3 |
| 20260507093037 | 60 | 310 | 0.0 | 0.0 | 0.00 | 0.00 | 0.00 | 91 | 1016.4 |
| 20260507091536 | 60 | 310 | 0.0 | 2.0 | 0.00 | 0.00 | 0.00 | 91 | 1016.5 |
| 20260507090034 | 61 | 347 | 0.0 | 0.0 | 0.00 | 0.00 | 0.00 | 90 | 1016.6 |
| 20260507084531 | 61 | 347 | 0.0 | 0.0 | 0.00 | 0.00 | 0.00 | 90 | 1016.8 |
| 20260507083035 | 61 | 347 | 0.0 | 0.0 | 0.00 | 0.00 | 0.00 | 90 | 1016.9 |
| 20260507081528 | 61 | 312 | 2.0 | 3.0 | 0.00 | 0.00 | 0.00 | 90 | 1017.1 |
| 20260507080028 | 61 | 14 | 0.0 | 3.0 | 0.00 | 0.00 | 0.00 | 90 | 1017.2 |
| 20260507074527 | 61 | 4 | 1.0 | 3.0 | 0.00 | 0.00 | 0.00 | 90 | 1017.2 |
| 20260507073025 | 61 | 315 | 1.0 | 4.0 | 0.00 | 0.00 | 0.00 | 90 | 1017.1 |
| 20260507071523 | 61 | 354 | 1.0 | 4.0 | 0.00 | 0.00 | 0.00 | 90 | 1017.2 |
| 20260507070027 | 62 | 336 | 1.0 | 3.0 | 0.00 | 0.00 | 0.00 | 89 | 1017.3 |
| 20260507064533 | 62 | 332 | 2.0 | 3.0 | 0.00 | 0.00 | 0.00 | 89 | 1017.4 |
| 20260507063027 | 62 | 335 | 1.0 | 4.0 | 0.00 | 0.00 | 0.00 | 89 | 1017.4 |
| 20260507061520 | 62 | 354 | 2.0 | 4.0 | 0.00 | 0.00 | 0.00 | 89 | 1017.5 |
| 20260507060021 | 62 | 330 | 2.0 | 4.0 | 0.00 | 0.00 | 0.00 | 89 | 1017.4 |
| 20260507054523 | 62 | 340 | 5.0 | 8.0 | 0.00 | 0.00 | 0.00 | 89 | 1017.5 |
| 20260507053018 | 62 | 305 | 4.0 | 8.0 | 0.00 | 0.00 | 0.00 | 89 | 1017.5 |
| 20260507051518 | 62 | 304 | 2.0 | 9.0 | 0.00 | 0.00 | 0.00 | 89 | 1017.5 |
| 20260507050024 | 62 | 316 | 5.0 | 9.0 | 0.00 | 0.00 | 0.00 | 88 | 1017.4 |
| 20260507044516 | 62 | 301 | 4.0 | 8.0 | 0.00 | 0.00 | 0.00 | 88 | 1017.3 |
| 20260507043016 | 62 | 354 | 3.0 | 10.0 | 0.00 | 0.00 | 0.00 | 88 | 1017.3 |
| 20260507041527 | 62 | 328 | 7.0 | 10.0 | 0.00 | 0.00 | 0.00 | 88 | 1017.2 |
| 20260507040014 | 62 | 328 | 9.0 | 12.0 | 0.00 | 0.00 | 0.00 | 88 | 1017.2 |
| 20260507034517 | 62 | 347 | 8.0 | 13.0 | 0.00 | 0.00 | 0.00 | 87 | 1017.0 |
| 20260507033014 | 63 | 359 | 5.0 | 11.0 | 0.00 | 0.00 | 0.00 | 88 | 1016.9 |
| 20260507031523 | 63 | 299 | 6.0 | 11.0 | 0.00 | 0.00 | 0.00 | 87 | 1016.8 |
| 20260507030014 | 63 | 320 | 6.0 | 13.0 | 0.00 | 0.00 | 0.00 | 88 | 1016.6 |
| 20260507024513 | 63 | 334 | 7.0 | 14.0 | 0.00 | 0.00 | 0.00 | 87 | 1016.5 |
| 20260507023011 | 63 | 296 | 12.0 | 17.0 | 0.00 | 0.00 | 0.00 | 87 | 1016.4 |
| 20260507021511 | 63 | 328 | 6.0 | 14.0 | 0.00 | 0.00 | 0.00 | 87 | 1016.4 |
| 20260507020011 | 63 | 330 | 9.0 | 13.0 | 0.00 | 0.00 | 0.00 | 87 | 1016.3 |
| 20260507014516 | 63 | 289 | 10.0 | 16.0 | 0.00 | 0.00 | 0.00 | 86 | 1016.3 |
| 20260507013014 | 64 | 322 | 10.0 | 15.0 | 0.00 | 0.00 | 0.00 | 85 | 1016.2 |
| 20260507011516 | 64 | 339 | 11.0 | 18.0 | 0.00 | 0.00 | 0.00 | 86 | 1016.2 |
| 20260507010008 | 64 | 308 | 13.0 | 18.0 | 0.00 | 0.00 | 0.00 | 85 | 1016.2 |
| 20260507004517 | 64 | 293 | 11.0 | 18.0 | 0.00 | 0.00 | 0.00 | 84 | 1016.2 |
| 20260507003006 | 65 | 274 | 7.0 | 14.0 | 0.00 | 0.00 | 0.00 | 83 | 1016.2 |
| 20260507001507 | 65 | 311 | 8.0 | 16.0 | 0.00 | 0.00 | 0.00 | 83 | 1016.1 |
| 20260507000006 | 65 | 288 | 11.0 | 19.0 | 0.00 | 0.00 | 0.00 | 83 | 1016.0 |
| 20260506234507 | 65 | 310 | 13.0 | 18.0 | 0.00 | 0.00 | 0.00 | 83 | 1016.0 |
| 20260506233005 | 65 | 338 | 8.0 | 19.0 | 0.00 | 0.00 | 0.00 | 83 | 1016.0 |
| 20260506231509 | 65 | 302 | 10.0 | 18.0 | 0.00 | 0.00 | 0.00 | 81 | 1016.1 |
| 20260506230002 | 66 | 310 | 12.0 | 18.0 | 0.00 | 0.00 | 0.00 | 81 | 1016.1 |
| 20260506224501 | 65 | 305 | 11.0 | 18.0 | 0.00 | 0.00 | 0.00 | 81 | 1016.2 |
| 20260506223100 | 65 | 308 | 12.0 | 19.0 | 0.00 | 0.00 | 0.00 | 81 | 1016.3 |
| 20260506221558 | 64 | 280 | 12.0 | 18.0 | 0.00 | 0.00 | 0.00 | 81 | 1016.5 |
| 20260506220057 | 64 | 314 | 12.0 | 17.0 | 0.00 | 0.00 | 0.00 | 80 | 1016.6 |
| 20260506214556 | 64 | 281 | 12.0 | 19.0 | 0.00 | 0.00 | 0.00 | 79 | 1016.7 |
| 20260506213118 | 65 | 281 | 11.0 | 15.0 | 0.00 | 0.00 | 0.00 | 79 | 1016.9 |
| 20260506211605 | 64 | 281 | 11.0 | 18.0 | 0.00 | 0.00 | 0.00 | 79 | 1017.0 |
| 20260506210055 | 65 | 291 | 11.0 | 16.0 | 0.00 | 0.00 | 0.00 | 79 | 1017.0 |
| 20260506204557 | 65 | 314 | 12.0 | 18.0 | 0.00 | 0.00 | 0.00 | 78 | 1017.0 |
| 20260506203051 | 64 | 313 | 16.0 | 22.0 | 0.00 | 0.00 | 0.00 | 80 | 1017.0 |